CW0069 Weather Reports


Display with metric or nautical units.
time (UTC)temp
F
wind
direction
speed
MPH
gust
MPH
rain 1hr
in
rain 24hr
in
rain mn
in
humidity
%
barometer
mb
20260831182904 101 159 6.0 10.0 0.00 0.00 0.00 28 1013.6
20260831181905 101 71 2.0 7.0 0.00 0.00 0.00 28 1013.7
20260831181404 100 109 7.0 13.0 0.00 0.00 0.00 29 1013.8
20260831180905 100 66 5.0 10.0 0.00 0.00 0.00 28 1013.9
20260831180404 101 43 5.0 12.0 0.00 0.00 0.00 28 1014.1
20260831175405 100 143 7.0 14.0 0.00 0.00 0.00 29 1014.2
20260831174404 100 108 6.0 12.0 0.00 0.00 0.00 30 1014.4
20260831173404 99 183 3.0 8.0 0.00 0.00 0.00 32 1014.4
20260831172905 98 187 3.0 7.0 0.00 0.00 0.00 33 1014.5
20260831172404 98 120 3.0 8.0 0.00 0.00 0.00 32 1014.6
20260831171905 98 150 3.0 7.0 0.00 0.00 0.00 34 1014.6
20260831171405 97 196 3.0 6.0 0.00 0.00 0.00 34 1014.7
20260831170904 97 163 5.0 12.0 0.00 0.00 0.00 33 1014.7
20260831170405 97 144 3.0 7.0 0.00 0.00 0.00 34 1014.8
20260831165905 97 177 5.0 7.0 0.00 0.00 0.00 33 1014.8
20260831165404 96 165 6.0 10.0 0.00 0.00 0.00 34 1014.9
20260831164905 96 131 6.0 10.0 0.00 0.00 0.00 34 1014.8
20260831164404 96 119 6.0 10.0 0.00 0.00 0.00 34 1014.8
20260831163904 95 143 6.0 12.0 0.00 0.00 0.00 35 1014.9
20260831163404 95 176 4.0 7.0 0.00 0.00 0.00 36 1014.9
20260831162904 94 121 4.0 10.0 0.00 0.00 0.00 37 1014.9
20260831162405 94 142 5.0 10.0 0.00 0.00 0.00 37 1014.9
20260831161904 94 167 6.0 12.0 0.00 0.00 0.00 36 1015.0
20260831161404 93 185 6.0 12.0 0.00 0.00 0.00 36 1015.0
20260831160405 93 182 6.0 9.0 0.00 0.00 0.00 39 1015.1
20260831155904 92 162 3.0 7.0 0.00 0.00 0.00 40 1015.1
20260831154904 91 153 4.0 9.0 0.00 0.00 0.00 40 1015.2
20260831153904 91 161 5.0 10.0 0.00 0.00 0.00 41 1015.0
20260831153404 90 159 6.0 12.0 0.00 0.00 0.00 41 1015.0
20260831152905 90 137 5.0 9.0 0.00 0.00 0.00 42 1015.0
20260831152404 90 149 5.0 10.0 0.00 0.00 0.00 43 1015.0
20260831151904 89 180 4.0 10.0 0.00 0.00 0.00 47 1015.0
20260831150904 88 178 2.0 3.0 0.00 0.00 0.00 50 1014.9
20260831150405 88 178 4.0 6.0 0.00 0.00 0.00 50 1014.9
20260831145904 88 168 5.0 7.0 0.00 0.00 0.00 50 1014.9
20260831145404 87 177 4.0 7.0 0.00 0.00 0.00 50 1014.9
20260831144904 87 194 5.0 9.0 0.00 0.00 0.00 51 1014.7
20260831144405 87 176 3.0 9.0 0.00 0.00 0.00 51 1014.8
20260831143905 87 180 4.0 9.0 0.00 0.00 0.00 52 1014.8
20260831143404 86 171 5.0 10.0 0.00 0.00 0.00 52 1014.8
20260831142404 86 183 4.0 7.0 0.00 0.00 0.00 54 1014.7
20260831141904 85 165 5.0 9.0 0.00 0.00 0.00 54 1014.7
20260831141405 85 158 5.0 9.0 0.00 0.00 0.00 54 1014.7
20260831140904 85 128 3.0 9.0 0.00 0.00 0.00 54 1014.7
20260831140404 84 153 6.0 9.0 0.00 0.00 0.00 55 1014.8
20260831135905 84 165 3.0 7.0 0.00 0.00 0.00 56 1014.7
20260831135404 84 123 3.0 7.0 0.00 0.00 0.00 56 1014.7
20260831134904 83 116 3.0 7.0 0.00 0.00 0.00 58 1014.6
20260831134405 83 115 3.0 6.0 0.00 0.00 0.00 57 1014.7
20260831133905 82 119 3.0 6.0 0.00 0.00 0.00 58 1014.6
20260831133404 82 122 3.0 6.0 0.00 0.00 0.00 59 1014.5
20260831132905 81 119 3.0 7.0 0.00 0.00 0.00 60 1014.4
20260831132404 80 127 3.0 6.0 0.00 0.00 0.00 61 1014.4
20260831131905 80 114 3.0 7.0 0.00 0.00 0.00 62 1014.2
20260831130905 79 111 2.0 6.0 0.00 0.00 0.00 63 1014.1
20260831130405 78 115 3.0 6.0 0.00 0.00 0.00 63 1014.0
20260831125904 78 123 3.0 5.0 0.00 0.00 0.00 63 1014.0
20260831125404 95 117 2.0 6.0 0.00 0.00 0.00 26 1014.0
20260831124905 95 121 2.0 7.0 0.00 0.00 0.00 26 1013.9
20260831124404 95 128 3.0 6.0 0.00 0.00 0.00 26 1013.8
20260831123905 95 113 2.0 3.0 0.00 0.00 0.00 26 1013.8
20260831123404 95 108 2.0 3.0 0.00 0.00 0.00 26 1013.8
20260831122904 95 108 1.0 3.0 0.00 0.00 0.00 26 1013.7
20260831121404 95 34 1.0 3.0 0.00 0.00 0.00 26 1013.4
20260831120904 95 112 2.0 3.0 0.00 0.00 0.00 26 1013.4
20260831120405 95 32 2.0 3.0 0.00 0.00 0.00 26 1013.4
20260831115905 95 100 2.0 3.0 0.00 0.00 0.00 26 1013.3
20260831115404 95 0 2.0 3.0 0.00 0.00 0.00 26 1013.3
20260831114904 95 39 2.0 3.0 0.00 0.00 0.00 26 1013.2
20260831114404 95 19 1.0 3.0 0.00 0.00 0.00 26 1013.2
20260831113404 95 0 0.0 2.0 0.00 0.00 0.00 26 1013.1
20260831112904 95 1 1.0 2.0 0.00 0.00 0.00 26 1013.1
20260831112404 95 128 1.0 2.0 0.00 0.00 0.00 26 1013.0
20260831110405 95 129 1.0 2.0 0.00 0.00 0.00 26 1012.8
20260831105404 95 129 0.0 3.0 0.00 0.00 0.00 26 1012.8
20260831104905 95 129 0.0 2.0 0.00 0.00 0.00 26 1012.8
20260831104405 95 129 1.0 3.0 0.00 0.00 0.00 26 1012.7
20260831103905 95 129 1.0 2.0 0.00 0.00 0.00 26 1012.7
20260831103404 95 129 1.0 3.0 0.00 0.00 0.00 26 1012.7
20260831101405 95 134 2.0 7.0 0.00 0.00 0.00 26 1012.7
20260831100404 95 147 3.0 5.0 0.00 0.00 0.00 26 1012.7
20260831095904 95 132 2.0 5.0 0.00 0.00 0.00 26 1012.6
20260831095404 95 138 3.0 5.0 0.00 0.00 0.00 26 1012.6
20260831094905 95 139 2.0 3.0 0.00 0.00 0.00 26 1012.6
20260831094404 95 133 2.0 5.0 0.00 0.00 0.00 26 1012.6
20260831093904 95 139 2.0 5.0 0.00 0.00 0.00 26 1012.6
20260831093404 95 123 3.0 5.0 0.00 0.00 0.00 26 1012.5
20260831092904 95 116 2.0 3.0 0.00 0.00 0.00 26 1012.5
20260831092405 95 125 2.0 3.0 0.00 0.00 0.00 26 1012.6
20260831091904 95 128 3.0 6.0 0.00 0.00 0.00 26 1012.5
20260831090405 95 147 1.0 3.0 0.00 0.00 0.00 26 1012.4
20260831085904 95 148 2.0 3.0 0.00 0.00 0.00 26 1012.4
20260831084904 95 148 3.0 7.0 0.00 0.00 0.00 26 1012.4
20260831083904 95 130 2.0 3.0 0.00 0.00 0.00 26 1012.4
20260831083405 95 111 3.0 7.0 0.00 0.00 0.00 26 1012.4
20260831082904 95 123 2.0 6.0 0.00 0.00 0.00 26 1012.3
20260831082405 95 135 5.0 12.0 0.00 0.00 0.00 26 1012.2
20260831081905 95 136 6.0 10.0 0.00 0.00 0.00 26 1012.2
20260831081404 95 136 3.0 12.0 0.00 0.00 0.00 26 1012.2
20260831080904 95 157 6.0 10.0 0.00 0.00 0.00 26 1012.2
20260831080404 95 148 5.0 9.0 0.00 0.00 0.00 26 1012.2
20260831075905 95 147 5.0 9.0 0.00 0.00 0.00 26 1012.0
20260831075405 95 160 5.0 8.0 0.00 0.00 0.00 26 1012.0
20260831074904 95 131 5.0 9.0 0.00 0.00 0.00 26 1012.0
20260831074404 95 153 5.0 9.0 0.00 0.00 0.00 26 1012.0
20260831073905 95 149 4.0 8.0 0.00 0.00 0.00 26 1011.9
20260831073404 95 148 5.0 8.0 0.00 0.00 0.00 26 1011.9
20260831072404 95 142 4.0 8.0 0.00 0.00 0.00 26 1012.0
20260831071905 95 137 5.0 8.0 0.00 0.00 0.00 26 1011.9
20260831070904 95 143 4.0 9.0 0.00 0.00 0.00 26 1011.9
20260831070405 95 144 3.0 7.0 0.00 0.00 0.00 26 1011.9
20260831065904 95 136 2.0 3.0 0.00 0.00 0.00 26 1012.0
20260831065404 95 139 2.0 3.0 0.00 0.00 0.00 26 1012.0
20260831064904 95 138 2.0 5.0 0.00 0.00 0.00 26 1012.0
20260831064404 95 136 2.0 3.0 0.00 0.00 0.00 26 1012.0
20260831063904 95 137 2.0 3.0 0.00 0.00 0.00 26 1012.0
20260831063405 95 136 2.0 3.0 0.00 0.00 0.00 26 1011.9
20260831062404 95 136 1.0 3.0 0.00 0.00 0.00 26 1011.9
20260831061904 95 136 2.0 3.0 0.00 0.00 0.00 26 1012.1
20260831060904 95 144 1.0 3.0 0.00 0.00 0.00 26 1012.0
20260831055405 95 145 1.0 3.0 0.00 0.00 0.00 26 1012.1
20260831054904 95 145 1.0 3.0 0.00 0.00 0.00 26 1012.0
20260831054404 95 145 2.0 3.0 0.00 0.00 0.00 26 1012.0
20260831053905 95 121 1.0 3.0 0.00 0.00 0.00 26 1012.1
20260831053404 95 120 2.0 5.0 0.00 0.00 0.00 26 1012.0
20260831052904 95 120 1.0 3.0 0.00 0.00 0.00 26 1012.0
20260831051904 95 120 0.0 1.0 0.00 0.00 0.00 26 1011.8
20260831051404 95 120 1.0 2.0 0.00 0.00 0.00 26 1011.8
20260831050904 95 120 1.0 2.0 0.00 0.00 0.00 26 1011.8
20260831050404 95 120 1.0 3.0 0.00 0.00 0.00 26 1011.7
20260831045404 95 120 0.0 1.0 0.00 0.00 0.00 26 1011.8
20260831044904 95 120 0.0 3.0 0.00 0.00 0.00 26 1011.7
20260831044404 95 120 1.0 3.0 0.00 0.00 0.00 26 1011.7
20260831043904 95 109 1.0 3.0 0.00 0.00 0.00 26 1011.7
20260831043404 95 109 1.0 3.0 0.00 0.00 0.00 26 1011.8
20260831042905 95 108 2.0 3.0 0.00 0.00 0.00 26 1011.8
20260831042405 95 107 1.0 3.0 0.00 0.00 0.00 26 1011.7
20260831041904 95 107 1.0 3.0 0.00 0.00 0.00 26 1011.7
20260831041404 95 107 2.0 3.0 0.00 0.00 0.00 26 1011.7
20260831040905 95 107 1.0 2.0 0.00 0.00 0.00 26 1011.7
20260831040404 95 106 1.0 3.0 0.00 0.00 0.00 26 1011.6
20260831035904 95 106 1.0 3.0 0.00 0.00 0.00 26 1011.5
20260831035405 95 106 1.0 3.0 0.00 0.00 0.00 26 1011.5
20260831034404 95 106 1.0 3.0 0.00 0.00 0.00 26 1011.4
20260831033905 95 106 1.0 3.0 0.00 0.00 0.00 26 1011.3
20260831032904 95 105 2.0 3.0 0.00 0.00 0.00 26 1011.4
20260831032405 95 105 2.0 3.0 0.00 0.00 0.00 26 1011.4
20260831031904 95 106 1.0 3.0 0.00 0.00 0.00 26 1011.4
20260831031405 95 105 2.0 3.0 0.00 0.00 0.00 26 1011.4
20260831030904 95 105 2.0 3.0 0.00 0.00 0.00 26 1011.4
20260831030405 95 105 1.0 3.0 0.00 0.00 0.00 26 1011.4
20260831025404 95 104 1.0 3.0 0.00 0.00 0.00 26 1011.2
20260831024905 95 104 1.0 2.0 0.00 0.00 0.00 26 1011.2
20260831024404 95 104 1.0 3.0 0.00 0.00 0.00 26 1011.2
20260831023404 95 103 2.0 3.0 0.00 0.00 0.00 26 1011.0
20260831022904 95 103 1.0 2.0 0.00 0.00 0.00 26 1010.9
20260831022404 95 103 1.0 3.0 0.00 0.00 0.00 26 1010.9
20260831021904 95 103 1.0 2.0 0.00 0.00 0.00 26 1010.9
20260831021404 95 103 0.0 2.0 0.00 0.00 0.00 26 1010.8
20260831020904 95 103 1.0 3.0 0.00 0.00 0.00 26 1010.6
20260831020404 95 103 1.0 2.0 0.00 0.00 0.00 26 1010.6
20260831015904 95 103 0.0 2.0 0.00 0.00 0.00 26 1010.6
20260831015405 95 103 0.0 2.0 0.00 0.00 0.00 26 1010.6
20260831014904 95 103 1.0 2.0 0.00 0.00 0.00 26 1010.5
20260831014404 95 102 1.0 3.0 0.00 0.00 0.00 26 1010.3
20260831013904 95 102 1.0 3.0 0.00 0.00 0.00 26 1010.4
20260831013404 95 102 1.0 3.0 0.00 0.00 0.00 26 1010.3
20260831012904 95 102 1.0 2.0 0.00 0.00 0.00 26 1010.2
20260831012405 95 102 2.0 3.0 0.00 0.00 0.00 26 1010.2
20260831011904 95 102 2.0 6.0 0.00 0.00 0.00 26 1010.2
20260831011405 95 111 2.0 3.0 0.00 0.00 0.00 26 1010.2
20260831010912 95 106 2.0 6.0 0.00 0.00 0.00 26 1010.2
20260831010404 95 98 1.0 6.0 0.00 0.00 0.00 26 1010.2
20260831004905 95 122 2.0 3.0 0.00 0.00 0.00 26 1010.1
20260831004404 95 126 2.0 3.0 0.00 0.00 0.00 26 1010.0
20260831003904 95 132 2.0 5.0 0.00 0.00 0.00 26 1010.0
20260831002904 95 116 1.0 3.0 0.00 0.00 0.00 26 1010.0
20260831002405 96 107 3.0 7.0 0.00 0.00 0.00 26 1009.9
20260831001904 96 116 4.0 9.0 0.00 0.00 0.00 25 1009.9
20260831001405 96 98 3.0 8.0 0.00 0.00 0.00 25 1010.0
20260831000904 96 119 4.0 9.0 0.00 0.00 0.00 26 1010.0
20260831000404 97 124 2.0 3.0 0.00 0.00 0.00 27 1010.1
20260830235404 97 110 5.0 8.0 0.00 0.00 0.00 27 1010.1
20260830234904 97 125 5.0 9.0 0.00 0.00 0.00 26 1010.2
20260830233904 97 128 6.0 12.0 0.00 0.00 0.00 26 1010.1
20260830231904 97 118 5.0 12.0 0.00 0.00 0.00 26 1010.2
20260830230405 98 87 2.0 9.0 0.00 0.00 0.00 25 1010.2
20260830225404 98 130 2.0 5.0 0.00 0.00 0.00 25 1010.4
20260830224904 99 127 3.0 7.0 0.00 0.00 0.00 24 1010.4
20260830224404 99 116 4.0 9.0 0.00 0.00 0.00 25 1010.4
20260830223404 100 118 4.0 13.0 0.00 0.00 0.00 24 1010.4
20260830222904 100 121 6.0 8.0 0.00 0.00 0.00 24 1010.5
20260830222404 100 138 8.0 13.0 0.00 0.00 0.00 24 1010.4
20260830221904 100 147 7.0 12.0 0.00 0.00 0.00 23 1010.4
20260830220906 101 118 3.0 10.0 0.00 0.00 0.00 23 1010.5
20260830220404 101 132 9.0 15.0 0.00 0.00 0.00 22 1010.5
20260830215904 101 148 6.0 12.0 0.00 0.00 0.00 23 1010.5
20260830215404 101 111 7.0 12.0 0.00 0.00 0.00 23 1010.5
20260830214904 101 126 5.0 9.0 0.00 0.00 0.00 24 1010.5
20260830214405 100 120 7.0 17.0 0.00 0.00 0.00 25 1010.6
20260830213904 100 135 4.0 12.0 0.00 0.00 0.00 25 1010.5
20260830213404 100 149 6.0 12.0 0.00 0.00 0.00 24 1010.6
20260830212904 100 120 9.0 13.0 0.00 0.00 0.00 25 1010.7
20260830212404 100 117 6.0 14.0 0.00 0.00 0.00 24 1010.7
20260830211904 101 116 6.0 10.0 0.00 0.00 0.00 22 1010.8
20260830211404 101 118 4.0 9.0 0.00 0.00 0.00 23 1010.8
20260830210904 102 122 5.0 10.0 0.00 0.00 0.00 23 1010.7
20260830205904 102 156 6.0 13.0 0.00 0.00 0.00 22 1010.9
20260830204404 102 159 8.0 13.0 0.00 0.00 0.00 24 1011.2
20260830203905 102 132 8.0 15.0 0.00 0.00 0.00 22 1011.3
20260830203405 103 151 9.0 16.0 0.00 0.00 0.00 23 1011.2
20260830202904 102 157 3.0 9.0 0.00 0.00 0.00 25 1011.3
20260830202404 102 114 6.0 12.0 0.00 0.00 0.00 24 1011.4
20260830201904 102 97 5.0 12.0 0.00 0.00 0.00 25 1011.6
20260830201404 102 67 7.0 15.0 0.00 0.00 0.00 24 1011.5
20260830200905 101 130 5.0 12.0 0.00 0.00 0.00 23 1011.6
20260830200405 102 149 9.0 15.0 0.00 0.00 0.00 24 1011.6
20260830194905 101 122 7.0 13.0 0.00 0.00 0.00 25 1012.0
20260830193904 101 111 6.0 13.0 0.00 0.00 0.00 23 1012.2
20260830192904 101 160 7.0 9.0 0.00 0.00 0.00 24 1012.2
20260830192404 101 114 7.0 14.0 0.00 0.00 0.00 26 1012.4
20260830191404 101 170 6.0 15.0 0.00 0.00 0.00 26 1012.5
20260830190904 101 139 10.0 15.0 0.00 0.00 0.00 26 1012.6
20260830190404 101 158 7.0 14.0 0.00 0.00 0.00 29 1012.6
20260830185905 100 160 9.0 18.0 0.00 0.00 0.00 28 1012.6
20260830185405 100 154 5.0 14.0 0.00 0.00 0.00 28 1012.8
20260830184904 101 152 10.0 15.0 0.00 0.00 0.00 28 1012.8
20260830184405 101 118 6.0 13.0 0.00 0.00 0.00 28 1012.8
20260830183905 100 158 9.0 15.0 0.00 0.00 0.00 29 1012.9
20260830183404 100 137 10.0 18.0 0.00 0.00 0.00 28 1013.0